This is the latest recevied weather packets stored in our database for station/object W8RD. If no packets are shown the sender has not sent any weather packets the latest 10 day(s).
| Time | Temp. | Humidity | Pressure | Rain* | Wind** | Luminosity | Snow |
|---|---|---|---|---|---|---|---|
| 1777377939 | 20.56° C | 87% | 1020.3 hPa | 0 mm | - | 19 W/m² | - |
| 1777377334 | 20° C | 88% | 1020.4 hPa | 0 mm | - | 18 W/m² | - |
| 1777376734 | 20° C | 89% | 1020.3 hPa | 0 mm | - | 16 W/m² | - |
| 1777376132 | 19.44° C | 92% | 1020.3 hPa | 0 mm | - | 24 W/m² | - |
| 1777375527 | 18.89° C | 92% | 1020 hPa | 0 mm | - | 11 W/m² | - |
| 1777374925 | 18.89° C | 92% | 1019.9 hPa | 0 mm | - | 8 W/m² | - |
| 1777374323 | 18.89° C | 92% | 1019.8 hPa | 0 mm | - | 5 W/m² | - |
| 1777373723 | 18.89° C | 92% | 1019.7 hPa | 0 mm | - | 2 W/m² | - |
| 1777373121 | 18.89° C | 92% | 1019.8 hPa | 0 mm | - | 0 W/m² | - |
| 1777372517 | 18.89° C | 92% | 1019.6 hPa | 0 mm | - | 0 W/m² | - |
| 1777371916 | 18.89° C | 92% | 1019.7 hPa | 0 mm | - | 0 W/m² | - |
| 1777371315 | 18.89° C | 92% | 1019.5 hPa | 0 mm | - | 0 W/m² | - |
| 1777370713 | 18.89° C | 92% | 1019.5 hPa | 0 mm | - | 0 W/m² | - |
| 1777370111 | 18.89° C | 91% | 1019.4 hPa | 0 mm | - | 0 W/m² | - |
| 1777369508 | 18.89° C | 91% | 1019.4 hPa | 0 mm | - | 0 W/m² | - |
| 1777368903 | 18.89° C | 91% | 1019.3 hPa | 0 mm | - | 0 W/m² | - |
| 1777368299 | 18.89° C | 90% | 1019.4 hPa | 0 mm | - | 0 W/m² | - |
| 1777367693 | 18.89° C | 90% | 1019.1 hPa | 0 mm | - | 0 W/m² | - |
| 1777367093 | 19.44° C | 90% | 1019.2 hPa | 0 mm | - | 0 W/m² | - |
| 1777366491 | 19.44° C | 89% | 1019.3 hPa | 0 mm | - | 0 W/m² | - |
| 1777365888 | 19.44° C | 89% | 1019 hPa | 0 mm | - | 0 W/m² | - |
| 1777365289 | 20° C | 88% | 1019.2 hPa | 0 mm | - | 0 W/m² | - |
| 1777364684 | 20° C | 87% | 1019.4 hPa | 0 mm | - | 0 W/m² | - |
| 1777364082 | 20° C | 87% | 1019.1 hPa | 0 mm | - | 0 W/m² | - |
| 1777363481 | 20° C | 87% | 1019 hPa | 0 mm | - | 0 W/m² | - |
* Rain latest hour (hover to see other rain measurements)
** Current wind speed in m/s (hover to see current wind gust speed)